This is the latest recevied weather packets stored in our database for station/object W4MJZ-1. If no packets are shown the sender has not sent any weather packets the latest 1 day(s).
| Time | Temp. | Humidity | Pressure | Rain* | Wind** | Luminosity | Snow |
|---|---|---|---|---|---|---|---|
| 1778006540 | 22.78° C | 45% | 1019.6 hPa | 0 mm | 3.13 m/s, 243° | - | - |
| 1778006392 | 21.67° C | 46% | 1019.6 hPa | 0 mm | 3.13 m/s, 246° | - | - |
| 1778006240 | 21.67° C | 46% | 1019.6 hPa | 0 mm | 3.13 m/s, 246° | - | - |
| 1778006076 | 21.67° C | 46% | 1019.6 hPa | 0 mm | 3.13 m/s, 257° | - | - |
| 1778005950 | 21.67° C | 46% | 1019.6 hPa | 0 mm | 3.13 m/s, 257° | - | - |
| 1778005806 | 21.11° C | 47% | 1019.6 hPa | 0 mm | 3.58 m/s, 263° | - | - |
| 1778005639 | 21.11° C | 47% | 1019.6 hPa | 0 mm | 3.58 m/s, 263° | - | - |
| 1778005510 | 21.11° C | 48% | 1019.6 hPa | 0 mm | 3.13 m/s, 256° | - | - |
| 1778005339 | 21.11° C | 48% | 1019.6 hPa | 0 mm | 3.13 m/s, 256° | - | - |
| 1778005159 | 21.11° C | 47% | 1019.6 hPa | 0 mm | 2.68 m/s, 242° | - | - |
| 1778005039 | 21.11° C | 47% | 1019.6 hPa | 0 mm | 2.68 m/s, 242° | - | - |
| 1778004898 | 21.11° C | 47% | 1019.6 hPa | 0 mm | 2.24 m/s, 264° | - | - |
| 1778004739 | 21.11° C | 47% | 1019.6 hPa | 0 mm | 2.24 m/s, 264° | - | - |
| 1778004439 | 21.11° C | 55% | 1020 hPa | 0 mm | 1.79 m/s, 286° | - | - |
| 1778004274 | 21.11° C | 51% | 1019.6 hPa | 0 mm | 2.24 m/s, 284° | - | - |
| 1778004139 | 21.11° C | 51% | 1019.6 hPa | 0 mm | 2.24 m/s, 284° | - | - |
| 1778003973 | 20° C | 54% | 1019.6 hPa | 0 mm | 2.24 m/s, 285° | - | - |
| 1778003839 | 20° C | 54% | 1019.6 hPa | 0 mm | 2.24 m/s, 285° | - | - |
| 1778003789 | 20° C | 53% | 1019.6 hPa | 0 mm | 2.68 m/s, 289° | - | - |
| 1778003753 | 20° C | 53% | 1019.6 hPa | 0 mm | 2.68 m/s, 289° | - | - |
| 1778003539 | 20° C | 53% | 1019.6 hPa | 0 mm | 2.68 m/s, 289° | - | - |
| 1778003416 | 20° C | 54% | 1020 hPa | 0 mm | 2.68 m/s, 274° | - | - |
| 1778003239 | 20° C | 54% | 1020 hPa | 0 mm | 2.68 m/s, 274° | - | - |
| 1778003123 | 20.56° C | 55% | 1020 hPa | 0 mm | 2.24 m/s, 249° | - | - |
| 1778002939 | 20.56° C | 55% | 1020 hPa | 0 mm | 2.24 m/s, 249° | - | - |
* Rain latest hour (hover to see other rain measurements)
** Current wind speed in m/s (hover to see current wind gust speed)